Malahat, British Columbia

6:12 AM PDT on June 27, 2017 (GMT -0700)
Malahat

Weather History for CWKH - October, 2012

Change the Weather History Date:

Monday, October 29, 2012

  Actual Average Record
Temperature  
Mean Temperature 48 °F -  
Max Temperature 51 °F - - ()
Min Temperature 45 °F - - ()
Degree Days  
Heating Degree Days 17    
Moisture  
Dew Point 47 °F    
Average Humidity 93    
Maximum Humidity 97    
Minimum Humidity 87    
Precipitation  
Precipitation 0.00 in - - ()
Sea Level Pressure  
Sea Level Pressure 29.80 in    
Wind  
Wind Speed - ()    
Max Wind Speed -    
Max Gust Speed -    
T = Trace of Precipitation, MM = Missing Value Source: Averaged Metar Reports

Daily Weather History Graph

Daily Weather History Graph

Search for Another Location

Airport or City:

Trip Planner

Search our weather history database for the weather conditions in past years. The results will help you decide how hot, cold, wet, or windy it might be!

Date:

Astronomy

Oct. 29, 2012 Rise Set
Actual Time 7:56 AM PDT 5:58 PM PDT
Civil Twilight 7:24 AM PDT 6:31 PM PDT
Nautical Twilight 6:47 AM PDT 7:07 PM PDT
Astronomical Twilight 6:10 AM PDT 7:44 PM PDT
Moon 5:49 PM PDT (10/29) 7:55 AM PDT (10/29)
Length of Visible Light 11h 06m
Length of Day
10h 01m
Full, 100% of the Moon is Illuminated
Oct 29
Full
Oct 29
Full
Nov 6
Last Quarter
Nov 13
New
Nov 20
First Quarter

Hourly Weather History & Observations

Time (PDT) Temp. Dew Point Humidity Pressure Visibility Wind Dir Wind Speed Gust Speed Precip Events Conditions
12:00 AM 46.2 °F 45.0 °F 95% 29.72 in - North - - N/A   Unknown
1:00 AM 46.0 °F 45.0 °F 96% 29.70 in - North - - N/A   Unknown
2:00 AM 46.0 °F 45.0 °F 96% 29.70 in - North - - N/A   Unknown
3:00 AM 45.7 °F 44.6 °F 96% 29.69 in - North - - N/A   Unknown
4:00 AM 46.0 °F 45.1 °F 97% 29.68 in - North - - N/A   Unknown
5:00 AM 45 °F 44 °F 96% 29.67 in - Calm Calm - -  
6:00 AM 45.0 °F 44.1 °F 97% 29.66 in - North - - N/A   Unknown
7:00 AM 45.3 °F 44.4 °F 97% 29.67 in - North - - N/A   Unknown
8:00 AM 45.5 °F 44.6 °F 97% 29.69 in - North - - N/A   Unknown
9:00 AM 46.2 °F 45.3 °F 97% 29.72 in - North - - N/A   Unknown
10:00 AM 50.5 °F 49.6 °F 97% 29.75 in - North - - N/A   Unknown
11:00 AM 51 °F 50 °F 97% 29.77 in - Calm Calm - -  
11:00 AM 51.4 °F 50.4 °F 96% 29.77 in - North - - N/A   Unknown
12:00 PM 51.1 °F 49.5 °F 94% 29.79 in - North - - N/A   Unknown
1:00 PM 51.3 °F 48.9 °F 92% 29.83 in - North - - N/A   Unknown
2:00 PM 51.6 °F 48.6 °F 89% 29.86 in - North - - N/A   Unknown
3:00 PM 50.5 °F 47.7 °F 90% 29.89 in - North - - N/A   Unknown
4:00 PM 50.9 °F 47.1 °F 87% 29.91 in - North - - N/A   Unknown
5:00 PM 50 °F 47 °F 87% 29.92 in - Calm Calm - -  
5:00 PM 50.2 °F 47.3 °F 90% 29.92 in - North - - N/A   Unknown
6:00 PM 50.5 °F 47.3 °F 89% 29.91 in - North - - N/A   Unknown
8:00 PM 49.6 °F 48.0 °F 94% 29.91 in - North - - N/A   Unknown
9:00 PM 51.3 °F 47.7 °F 87% 29.90 in - North - - N/A   Unknown
10:00 PM 50.7 °F 48.0 °F 90% 29.89 in - North - - N/A   Unknown
11:00 PM 50 °F 48 °F 90% 29.89 in - Calm Calm - -  
11:00 PM 50.0 °F 48.0 °F 93% 29.89 in - North - - N/A   Unknown